Time,TemperatureF,DewpointF,PressureIn,WindDirection,WindDirectionDegrees,WindSpeedMPH,WindSpeedGustMPH,Humidity,HourlyPrecipIn,Conditions,Clouds,dailyrainin,SoftwareType,DateUTC
2013-02-03 00:03:00,40.0,34.0,30.13,East,85,0.0,6.0,79,0.00,,,0.00,,2013-02-03 05:03:00,
2013-02-03 00:12:00,40.0,34.0,30.13,East,85,0.0,6.0,79,0.00,,,0.00,,2013-02-03 05:12:00,
2013-02-03 00:22:00,40.0,34.0,30.12,ENE,63,0.0,3.0,79,0.00,,,0.00,,2013-02-03 05:22:00,
2013-02-03 00:32:00,40.0,34.0,30.12,SSE,156,0.0,3.0,80,0.00,,,0.00,,2013-02-03 05:32:00,
2013-02-03 00:42:00,40.0,34.0,30.12,SSE,156,0.0,3.0,80,0.00,,,0.00,,2013-02-03 05:42:00,
2013-02-03 00:52:00,40.0,34.0,30.11,NE,53,0.0,5.0,80,0.00,,,0.00,,2013-02-03 05:52:00,
2013-02-03 01:02:00,40.0,34.0,30.11,NE,55,0.0,1.0,80,0.00,,,0.00,,2013-02-03 06:02:00,
2013-02-03 01:11:00,40.0,34.0,30.11,NE,55,0.0,1.0,80,0.00,,,0.00,,2013-02-03 06:11:00,
2013-02-03 01:21:00,39.0,34.0,30.09,ENE,76,0.0,2.0,81,0.00,,,0.00,,2013-02-03 06:21:00,
2013-02-03 01:32:00,39.0,34.0,30.09,SE,144,0.0,1.0,81,0.00,,,0.00,,2013-02-03 06:32:00,
2013-02-03 01:42:00,39.0,34.0,30.09,SE,144,0.0,1.0,81,0.00,,,0.00,,2013-02-03 06:42:00,
2013-02-03 01:52:00,39.0,34.0,30.09,NE,46,0.0,1.0,82,0.00,,,0.00,,2013-02-03 06:52:00,
2013-02-03 02:01:00,39.0,34.0,30.09,South,191,0.0,1.0,82,0.00,,,0.00,,2013-02-03 07:01:00,
2013-02-03 02:11:00,39.0,34.0,30.09,South,191,0.0,1.0,82,0.00,,,0.00,,2013-02-03 07:11:00,
2013-02-03 02:21:00,39.0,34.0,30.08,ENE,71,1.0,5.0,82,0.00,,,0.00,,2013-02-03 07:21:00,
2013-02-03 02:31:00,39.0,34.0,30.07,ENE,71,0.0,2.0,82,0.00,,,0.00,,2013-02-03 07:31:00,
2013-02-03 02:42:00,39.0,34.0,30.07,ENE,71,0.0,2.0,82,0.00,,,0.00,,2013-02-03 07:42:00,
2013-02-03 02:52:00,39.0,34.0,30.06,ENE,67,0.0,2.0,82,0.00,,,0.00,,2013-02-03 07:52:00,
2013-02-03 03:01:00,39.0,34.0,30.06,ENE,67,0.0,1.0,83,0.00,,,0.00,,2013-02-03 08:01:00,
2013-02-03 03:11:00,39.0,34.0,30.06,ENE,67,0.0,1.0,83,0.00,,,0.00,,2013-02-03 08:11:00,
2013-02-03 03:22:00,38.0,33.0,30.06,SW,221,0.0,1.0,83,0.00,,,0.00,,2013-02-03 08:22:00,
2013-02-03 03:32:00,38.0,33.0,30.05,SW,221,0.0,0.0,83,0.00,,,0.00,,2013-02-03 08:32:00,
2013-02-03 03:41:00,38.0,33.0,30.05,SW,221,0.0,0.0,83,0.00,,,0.00,,2013-02-03 08:41:00,
2013-02-03 03:52:00,37.0,33.0,30.05,SW,221,0.0,0.0,84,0.00,,,0.00,,2013-02-03 08:52:00,
2013-02-03 04:03:00,37.0,33.0,30.05,SW,221,0.0,0.0,85,0.00,,,0.00,,2013-02-03 09:03:00,
2013-02-03 04:11:00,37.0,33.0,30.05,SW,221,0.0,0.0,85,0.00,,,0.00,,2013-02-03 09:11:00,
2013-02-03 04:21:00,37.0,33.0,30.04,SW,221,0.0,0.0,86,0.00,,,0.00,,2013-02-03 09:21:00,
2013-02-03 04:32:00,37.0,33.0,30.04,SW,221,0.0,0.0,86,0.00,,,0.00,,2013-02-03 09:32:00,
2013-02-03 04:42:00,37.0,33.0,30.04,SW,221,0.0,0.0,86,0.00,,,0.00,,2013-02-03 09:42:00,
2013-02-03 04:52:00,36.0,32.0,30.03,SSE,161,0.0,1.0,86,0.00,,,0.00,,2013-02-03 09:52:00,
2013-02-03 05:01:00,36.0,32.0,30.03,SSE,161,0.0,0.0,86,0.00,,,0.00,,2013-02-03 10:01:00,
2013-02-03 05:11:00,36.0,32.0,30.03,SSE,161,0.0,0.0,86,0.00,,,0.00,,2013-02-03 10:11:00,
2013-02-03 05:21:00,36.0,33.0,30.03,ENE,57,0.0,2.0,87,0.00,,,0.00,,2013-02-03 10:21:00,
2013-02-03 05:32:00,36.0,32.0,30.03,ENE,63,0.0,3.0,86,0.00,,,0.00,,2013-02-03 10:32:00,
2013-02-03 05:42:00,36.0,32.0,30.03,ENE,63,0.0,3.0,86,0.00,,,0.00,,2013-02-03 10:42:00,
2013-02-03 05:53:00,36.0,32.0,30.04,ENE,72,0.0,1.0,86,0.00,,,0.00,,2013-02-03 10:53:00,
2013-02-03 06:02:00,36.0,33.0,30.05,ENE,74,0.0,2.0,87,0.00,,,0.00,,2013-02-03 11:02:00,
2013-02-03 06:11:00,36.0,33.0,30.05,ENE,74,0.0,2.0,87,0.00,,,0.00,,2013-02-03 11:11:00,
2013-02-03 06:22:00,35.0,32.0,30.05,ENE,74,0.0,0.0,87,0.00,,,0.00,,2013-02-03 11:22:00,
2013-02-03 06:32:00,34.0,31.0,30.05,ENE,74,0.0,1.0,87,0.00,,,0.00,,2013-02-03 11:32:00,
2013-02-03 06:42:00,34.0,31.0,30.05,ENE,74,0.0,1.0,87,0.00,,,0.00,,2013-02-03 11:42:00,
2013-02-03 06:52:00,34.0,29.0,30.05,ENE,63,1.0,5.0,83,0.00,,,0.00,,2013-02-03 11:52:00,
2013-02-03 07:02:00,35.0,29.0,30.05,ENE,59,2.0,6.0,78,0.00,,,0.00,,2013-02-03 12:02:00,
2013-02-03 07:12:00,35.0,29.0,30.05,ENE,59,2.0,6.0,78,0.00,,,0.00,,2013-02-03 12:12:00,
2013-02-03 07:22:00,34.0,27.0,30.06,NE,40,0.0,2.0,74,0.00,,,0.00,,2013-02-03 12:22:00,
2013-02-03 07:32:00,34.0,26.0,30.06,NE,40,0.0,0.0,73,0.00,,,0.00,,2013-02-03 12:32:00,
2013-02-03 07:42:00,34.0,26.0,30.06,NE,40,0.0,0.0,73,0.00,,,0.00,,2013-02-03 12:42:00,
2013-02-03 07:53:00,33.0,26.0,30.05,NE,47,0.0,1.0,75,0.00,,,0.00,,2013-02-03 12:53:00,
2013-02-03 08:03:00,32.0,25.0,30.05,NE,46,0.0,0.0,75,0.00,,,0.00,,2013-02-03 13:03:00,
2013-02-03 08:11:00,32.0,25.0,30.05,NE,46,0.0,0.0,75,0.00,,,0.00,,2013-02-03 13:11:00,
2013-02-03 08:22:00,31.0,25.0,30.06,NE,47,0.0,0.0,78,0.00,,,0.00,,2013-02-03 13:22:00,
2013-02-03 08:32:00,31.0,25.0,30.06,NE,47,0.0,0.0,79,0.00,,,0.00,,2013-02-03 13:32:00,
2013-02-03 08:42:00,31.0,25.0,30.06,NE,47,0.0,0.0,79,0.00,,,0.00,,2013-02-03 13:42:00,
2013-02-03 08:52:00,31.0,26.0,30.06,NE,46,0.0,0.0,81,0.00,,,0.00,,2013-02-03 13:52:00,
2013-02-03 09:02:00,33.0,28.0,30.06,NE,46,0.0,1.0,81,0.00,,,0.00,,2013-02-03 14:02:00,
2013-02-03 09:12:00,33.0,28.0,30.06,NE,46,0.0,1.0,81,0.00,,,0.00,,2013-02-03 14:12:00,
2013-02-03 09:22:00,36.0,29.0,30.06,NE,47,0.0,0.0,76,0.00,,,0.00,,2013-02-03 14:22:00,
2013-02-03 09:32:00,38.0,30.0,30.06,WSW,251,0.0,2.0,72,0.00,,,0.00,,2013-02-03 14:32:00,
2013-02-03 09:42:00,38.0,30.0,30.06,WSW,251,0.0,2.0,72,0.00,,,0.00,,2013-02-03 14:42:00,
2013-02-03 09:52:00,39.0,29.0,30.06,SSE,161,0.0,1.0,66,0.00,,,0.00,,2013-02-03 14:52:00,
2013-02-03 10:03:00,40.0,30.0,30.06,SSE,162,0.0,1.0,67,0.00,,,0.00,,2013-02-03 15:03:00,
2013-02-03 10:11:00,40.0,30.0,30.06,SSE,162,0.0,1.0,67,0.00,,,0.00,,2013-02-03 15:11:00,
2013-02-03 10:22:00,41.0,29.0,30.05,ENE,72,1.0,4.0,62,0.00,,,0.00,,2013-02-03 15:22:00,
2013-02-03 10:33:00,42.0,29.0,30.05,NE,44,2.0,6.0,60,0.00,,,0.00,,2013-02-03 15:33:00,
2013-02-03 10:42:00,42.0,29.0,30.05,NE,44,2.0,6.0,60,0.00,,,0.00,,2013-02-03 15:42:00,
2013-02-03 10:52:00,43.0,29.0,30.05,ENE,61,1.0,4.0,58,0.00,,,0.00,,2013-02-03 15:52:00,
2013-02-03 11:03:00,43.0,28.0,30.05,NE,41,3.0,5.0,56,0.00,,,0.00,,2013-02-03 16:03:00,
2013-02-03 11:11:00,43.0,28.0,30.05,NE,41,3.0,5.0,56,0.00,,,0.00,,2013-02-03 16:11:00,
2013-02-03 11:22:00,44.0,29.0,30.04,NE,53,3.0,6.0,56,0.00,,,0.00,,2013-02-03 16:22:00,
2013-02-03 11:33:00,45.0,30.0,30.04,ENE,75,2.0,7.0,56,0.00,,,0.00,,2013-02-03 16:33:00,
2013-02-03 11:42:00,45.0,30.0,30.04,ENE,75,2.0,7.0,56,0.00,,,0.00,,2013-02-03 16:42:00,
2013-02-03 11:52:00,46.0,30.0,30.03,East,90,3.0,5.0,54,0.00,,,0.00,,2013-02-03 16:52:00,
2013-02-03 12:02:00,47.0,31.0,30.02,ENE,57,1.0,5.0,53,0.00,,,0.00,,2013-02-03 17:02:00,
2013-02-03 12:11:00,47.0,31.0,30.02,ENE,57,1.0,5.0,53,0.00,,,0.00,,2013-02-03 17:11:00,
2013-02-03 12:22:00,48.0,31.0,30.01,NE,49,2.0,11.0,52,0.00,,,0.00,,2013-02-03 17:22:00,
2013-02-03 12:32:00,48.0,30.0,30.00,WSW,238,1.0,9.0,50,0.00,,,0.00,,2013-02-03 17:32:00,
2013-02-03 12:42:00,48.0,30.0,30.00,WSW,238,1.0,9.0,50,0.00,,,0.00,,2013-02-03 17:42:00,
2013-02-03 12:52:00,49.0,31.0,29.99,NE,55,3.0,8.0,49,0.00,,,0.00,,2013-02-03 17:52:00,
2013-02-03 13:03:00,50.0,31.0,29.98,NE,49,1.0,5.0,48,0.00,,,0.00,,2013-02-03 18:03:00,
2013-02-03 13:12:00,50.0,31.0,29.98,NE,49,1.0,5.0,48,0.00,,,0.00,,2013-02-03 18:12:00,
2013-02-03 13:23:00,49.0,31.0,29.98,ENE,64,2.0,10.0,49,0.00,,,0.00,,2013-02-03 18:23:00,
2013-02-03 13:33:00,49.0,31.0,29.98,East,79,2.0,6.0,49,0.00,,,0.00,,2013-02-03 18:33:00,
2013-02-03 13:42:00,49.0,31.0,29.98,East,79,2.0,6.0,49,0.00,,,0.00,,2013-02-03 18:42:00,
2013-02-03 13:52:00,50.0,29.0,29.96,East,101,2.0,9.0,45,0.00,,,0.00,,2013-02-03 18:52:00,
2013-02-03 14:02:00,50.0,29.0,29.96,ENE,61,3.0,11.0,44,0.00,,,0.00,,2013-02-03 19:02:00,
2013-02-03 14:11:00,50.0,29.0,29.96,ENE,61,3.0,11.0,44,0.00,,,0.00,,2013-02-03 19:11:00,
2013-02-03 14:22:00,51.0,29.0,29.95,NE,56,1.0,6.0,43,0.00,,,0.00,,2013-02-03 19:22:00,
2013-02-03 14:32:00,51.0,29.0,29.95,ENE,58,5.0,15.0,42,0.00,,,0.00,,2013-02-03 19:32:00,
2013-02-03 14:42:00,51.0,29.0,29.95,ENE,58,5.0,15.0,42,0.00,,,0.00,,2013-02-03 19:42:00,
2013-02-03 14:52:00,52.0,30.0,29.95,NE,45,1.0,11.0,42,0.00,,,0.00,,2013-02-03 19:52:00,
2013-02-03 15:02:00,52.0,30.0,29.96,ESE,107,2.0,7.0,43,0.00,,,0.00,,2013-02-03 20:02:00,
2013-02-03 15:12:00,52.0,30.0,29.96,ESE,107,2.0,7.0,43,0.00,,,0.00,,2013-02-03 20:12:00,
2013-02-03 15:22:00,52.0,29.0,29.96,NE,55,3.0,7.0,41,0.00,,,0.00,,2013-02-03 20:22:00,
2013-02-03 15:33:00,52.0,30.0,29.97,NE,44,1.0,7.0,42,0.00,,,0.00,,2013-02-03 20:33:00,
2013-02-03 15:42:00,52.0,30.0,29.97,NE,44,1.0,7.0,42,0.00,,,0.00,,2013-02-03 20:42:00,
2013-02-03 15:52:00,53.0,29.0,29.97,NE,55,1.0,5.0,40,0.00,,,0.00,,2013-02-03 20:52:00,
2013-02-03 16:03:00,53.0,29.0,29.97,SSW,200,2.0,9.0,39,0.00,,,0.00,,2013-02-03 21:03:00,
2013-02-03 16:11:00,53.0,29.0,29.97,SSW,200,2.0,9.0,39,0.00,,,0.00,,2013-02-03 21:11:00,
2013-02-03 16:21:00,53.0,28.0,29.98,WSW,242,1.0,12.0,38,0.00,,,0.00,,2013-02-03 21:21:00,
2013-02-03 16:32:00,52.0,26.0,29.98,WSW,246,2.0,6.0,36,0.00,,,0.00,,2013-02-03 21:32:00,
2013-02-03 16:42:00,52.0,26.0,29.98,WSW,246,2.0,6.0,36,0.00,,,0.00,,2013-02-03 21:42:00,
2013-02-03 16:52:00,52.0,27.0,29.98,ENE,72,2.0,11.0,37,0.00,,,0.00,,2013-02-03 21:52:00,
2013-02-03 17:01:00,51.0,28.0,29.99,East,84,1.0,13.0,40,0.00,,,0.00,,2013-02-03 22:01:00,
2013-02-03 17:11:00,51.0,28.0,29.99,East,84,1.0,13.0,40,0.00,,,0.00,,2013-02-03 22:11:00,
2013-02-03 17:21:00,48.0,26.0,30.00,NE,53,2.0,12.0,42,0.00,,,0.00,,2013-02-03 22:21:00,
2013-02-03 17:32:00,48.0,27.0,30.01,East,79,1.0,11.0,43,0.00,,,0.00,,2013-02-03 22:32:00,
2013-02-03 17:42:00,48.0,27.0,30.01,East,79,1.0,11.0,43,0.00,,,0.00,,2013-02-03 22:42:00,
2013-02-03 17:52:00,47.0,26.0,30.02,East,82,0.0,10.0,44,0.00,,,0.00,,2013-02-03 22:52:00,
2013-02-03 18:01:00,46.0,26.0,30.02,ENE,61,2.0,6.0,45,0.00,,,0.00,,2013-02-03 23:01:00,
2013-02-03 18:12:00,46.0,26.0,30.02,ENE,61,2.0,6.0,45,0.00,,,0.00,,2013-02-03 23:12:00,
2013-02-03 18:22:00,45.0,25.0,30.04,ENE,57,0.0,4.0,45,0.00,,,0.00,,2013-02-03 23:22:00,
2013-02-03 18:32:00,44.0,25.0,30.04,SW,216,1.0,6.0,46,0.00,,,0.00,,2013-02-03 23:32:00,
2013-02-03 18:42:00,44.0,25.0,30.04,SW,216,1.0,6.0,46,0.00,,,0.00,,2013-02-03 23:42:00,
2013-02-03 18:52:00,43.0,24.0,30.06,NNE,27,1.0,4.0,47,0.00,,,0.00,,2013-02-03 23:52:00,
2013-02-03 19:02:00,43.0,24.0,30.06,East,80,1.0,7.0,47,0.00,,,0.00,,2013-02-04 00:02:00,
2013-02-03 19:11:00,43.0,24.0,30.06,East,80,1.0,7.0,47,0.00,,,0.00,,2013-02-04 00:11:00,
2013-02-03 19:22:00,43.0,25.0,30.06,NE,43,1.0,5.0,48,0.00,,,0.00,,2013-02-04 00:22:00,
2013-02-03 19:32:00,42.0,24.0,30.06,ENE,76,1.0,5.0,48,0.00,,,0.00,,2013-02-04 00:32:00,
2013-02-03 19:42:00,42.0,24.0,30.06,ENE,76,1.0,5.0,48,0.00,,,0.00,,2013-02-04 00:42:00,
2013-02-03 19:52:00,42.0,24.0,30.06,NE,53,2.0,5.0,49,0.00,,,0.00,,2013-02-04 00:52:00,
2013-02-03 20:01:00,42.0,24.0,30.07,East,99,0.0,3.0,49,0.00,,,0.00,,2013-02-04 01:01:00,
2013-02-03 20:11:00,42.0,24.0,30.07,East,99,0.0,3.0,49,0.00,,,0.00,,2013-02-04 01:11:00,
2013-02-03 20:21:00,40.0,23.0,30.08,West,260,0.0,2.0,51,0.00,,,0.00,,2013-02-04 01:21:00,
2013-02-03 20:32:00,40.0,24.0,30.08,WSW,249,0.0,1.0,53,0.00,,,0.00,,2013-02-04 01:32:00,
2013-02-03 20:42:00,40.0,24.0,30.08,WSW,249,0.0,1.0,53,0.00,,,0.00,,2013-02-04 01:42:00,
2013-02-03 20:52:00,38.0,24.0,30.09,WSW,246,0.0,0.0,57,0.00,,,0.00,,2013-02-04 01:52:00,
2013-02-03 21:02:00,37.0,24.0,30.09,East,86,0.0,2.0,58,0.00,,,0.00,,2013-02-04 02:02:00,
2013-02-03 21:11:00,37.0,24.0,30.09,East,86,0.0,2.0,58,0.00,,,0.00,,2013-02-04 02:11:00,
2013-02-03 21:21:00,36.0,24.0,30.09,ENE,66,0.0,1.0,61,0.00,,,0.00,,2013-02-04 02:21:00,
2013-02-03 21:32:00,37.0,24.0,30.09,ENE,66,0.0,1.0,60,0.00,,,0.00,,2013-02-04 02:32:00,
2013-02-03 21:42:00,37.0,24.0,30.09,ENE,66,0.0,1.0,60,0.00,,,0.00,,2013-02-04 02:42:00,
2013-02-03 21:52:00,37.0,25.0,30.10,ENE,65,0.0,0.0,61,0.00,,,0.00,,2013-02-04 02:52:00,
2013-02-03 22:02:00,36.0,24.0,30.10,ENE,66,0.0,0.0,61,0.00,,,0.00,,2013-02-04 03:02:00,
2013-02-03 22:11:00,36.0,24.0,30.10,ENE,66,0.0,0.0,61,0.00,,,0.00,,2013-02-04 03:11:00,
2013-02-03 22:21:00,36.0,24.0,30.10,SW,219,0.0,1.0,61,0.00,,,0.00,,2013-02-04 03:21:00,
2013-02-03 22:32:00,36.0,24.0,30.10,SW,219,0.0,0.0,61,0.00,,,0.00,,2013-02-04 03:32:00,
2013-02-03 22:42:00,36.0,24.0,30.10,SW,219,0.0,0.0,61,0.00,,,0.00,,2013-02-04 03:42:00,
2013-02-03 22:52:00,35.0,24.0,30.09,SW,219,0.0,0.0,65,0.00,,,0.00,,2013-02-04 03:52:00,
2013-02-03 23:01:00,34.0,23.0,30.10,SW,219,0.0,0.0,65,0.00,,,0.00,,2013-02-04 04:01:00,
2013-02-03 23:11:00,34.0,23.0,30.10,SW,219,0.0,0.0,65,0.00,,,0.00,,2013-02-04 04:11:00,
2013-02-03 23:21:00,34.0,23.0,30.10,SW,219,0.0,1.0,65,0.00,,,0.00,,2013-02-04 04:21:00,
2013-02-03 23:32:00,33.0,23.0,30.11,SW,220,0.0,0.0,67,0.00,,,0.00,,2013-02-04 04:32:00,
2013-02-03 23:42:00,33.0,23.0,30.11,SW,220,0.0,0.0,67,0.00,,,0.00,,2013-02-04 04:42:00,
2013-02-03 23:52:00,30.0,22.0,30.11,SW,219,0.0,0.0,73,0.00,,,0.00,,2013-02-04 04:52:00,